Showing default

HULIANWANG DIGUI-14, 62974

Orbit data source: Space-Track

HULIANWANG DIGUI-14, 62974 is a payload satellite owned by Zhongguo Xingwang (CN) in LEO that was launched on Tue, 11 Feb 2025 UTC via a CHANG ZHENG 8A launch vehicle from the Wenchang Satellite Launch Center (WSC). Payload-class satellites include a variety of spacecraft equipped with specific instruments for various scientific and technological missions. These include communications satellites like Starlink; space stations such as the ISS; scientific satellites like the Hubble; Earth observation satellites from companies like Planet Labs, Umbra, and HawkEye 360; GPS; miniature CubeSats for education and research; and military/defense satellites.

Loading next visibility...
Identifier
62974, 2025-030D
Orbit
LEO
Country
Flag of CNCN / PRC
Related business
Manufacturer
CAST
Mission
Operational Civil Communications
Bus & Motor
GUOWANG C, Unknown motor
Mass
~800 kg wet, ~800 kg dry
Launch date (UTC)
2025-02-11 (10 months ago)
Launch vehicle
CHANG ZHENG 8A
Launch site
Wenchang Satellite Launch Center (WSC)
Object type
Payload
Rocket body
Debris
Shape & HBR
Box + 2 Pan, 2.0 m
Radar Cross Section
5.935 m², Large (>1 m²)

Expand to show TLE details & history
Last TLE update: 10 hours ago

TLE from 10 hours ago
0 HULIANWANG DIGUI-14
1 62974U 25030D   25354.57602029 -.00000106  00000-0  38837-4 0  9999
2 62974  50.0011 156.2323 0000614  48.5673 311.5252 13.29331379 42100
Epoch: 2025-12-20T13:49Z
TLE epoch observation values (Epoch: 2025-12-20T13:49:28.153Z)
Latitude
0.00002°
Longitude
-140.53583°
Altitude
1,149.486 km
Speed
7.28 km/s
True Right ascension
10h 24m 55s
True Declination
0° 00' 00"
Sunlit
Object was in daylight at epoch
Visualization orbit readout
Latitude
Unknown
Longitude
Unknown
Altitude
Unknown
Speed
Unknown
Apparent Right ascension
Unknown
Apparent Declination
Unknown
Sunlit
N/A
Visualization observer readout
Local Sidereal Time
23:17:01
Azimuth
Unknown
Elevation
Unknown
Doppler factor
Unknown
Orbital elements
Apogee altitude
1,150.454 km
Perigee altitude
1,149.529 km
Semi-major axis
7,528.128 km
Eccentricity
0.00006
Inclination
50.0011°
RAAN
156.2323°
Arg. of periapsis
48.5673°
True anomaly
311.51993°
Mean anomaly
311.5252°
Eccentric anomaly
311.52257°
Mean motion
3.32286 °/min
Orbital period
108.34 mins
BSTAR
0.000038837
Loading maneuver chart data...
Computing Atmospheric mass density...
Loading historical data...
Loading historical data...
Loading historical data...
Loading historical data...
Loading historical data...
Loading historical data...
Loading historical data...

Documentation

Showing up to 5 results
|